Precipitable_Water
0.29 0.31 0.32 0.33 0.34 0.37 0.36 0.38 0.30 0.34 0.33 0.38 0.45 0.46 0.50 0.54 0.55 0.55 0.54 0.52 0.52 0.53 0.55 0.60 0.61 0.63 0.64 0.66 0.70 0.71 0.69 0.65 0.62 0.60 0.57 0.56 0.54 0.53 0.52 0.49 0.48 0.47 0.44 0.44
0.18 0.24 0.24 0.22 0.26 0.30 0.31 0.32 0.30 0.31 0.29 0.39 0.42 0.45 0.44 0.46 0.48 0.47 0.48 0.46 0.45 0.46 0.48 0.48 0.49 0.51 0.54 0.53 0.53 0.57 0.50 0.49 0.49 0.45 0.42 0.39 0.37 0.34 0.32 0.31 0.30 0.30 0.29 0.28
0.12 0.17 0.16 0.12 0.18 0.24 0.26 0.27 0.27 0.21 0.27 0.34 0.34 0.36 0.38 0.40 0.43 0.42 0.43 0.42 0.41 0.42 0.42 0.41 0.41 0.41 0.39 0.41 0.42 0.40 0.38 0.36 0.32 0.29 0.27 0.26 0.26 0.25 0.24 0.25 0.27 0.26 0.28 0.28
0.13 0.14 0.07 0.12 0.23 0.26 0.24 0.25 0.27 0.27 0.28 0.31 0.32 0.36 0.40 0.42 0.41 0.41 0.42 0.41 0.39 0.39 0.38 0.37 0.38 0.36 0.35 0.32 0.30 0.27 0.25 0.25 0.25 0.24 0.22 0.22 0.22 0.22 0.22 0.22 0.22 0.23 0.24 0.26
0.10 0.09 0.09 0.10 0.15 0.18 0.19 0.17 0.26 0.25 0.28 0.30 0.34 0.35 0.34 0.41 0.43 0.43 0.44 0.43 0.40 0.40 0.37 0.36 0.35 0.34 0.31 0.29 0.28 0.28 0.27 0.27 0.25 0.23 0.21 0.21 0.21 0.21 0.22 0.22 0.23 0.23 0.25 0.23
0.14 0.08 0.04 0.08 0.16 0.24 0.25 0.11 0.22 0.26 0.27 0.28 0.31 0.21 0.24 0.36 0.41 0.43 0.45 0.44 0.40 0.40 0.37 0.35 0.35 0.35 0.30 0.27 0.27 0.26 0.25 0.25 0.23 0.23 0.22 0.21 0.21 0.21 0.23 0.23 0.24 0.24 0.23 0.25
0.12 0.10 0.09 0.14 0.20 0.25 0.10 0.09 0.20 0.23 0.27 0.30 0.26 0.28 0.34 0.37 0.39 0.43 0.44 0.43 0.43 0.40 0.35 0.34 0.36 0.34 0.29 0.27 0.25 0.25 0.25 0.26 0.24 0.24 0.23 0.23 0.22 0.23 0.23 0.23 0.23 0.22 0.23 0.26
0.14 0.11 0.06 0.18 0.20 0.13 0.16 0.21 0.24 0.25 0.26 0.28 0.31 0.35 0.36 0.38 0.39 0.41 0.42 0.42 0.42 0.38 0.35 0.36 0.37 0.33 0.29 0.25 0.25 0.25 0.26 0.26 0.26 0.25 0.24 0.23 0.23 0.23 0.24 0.23 0.22 0.22 0.23 0.25
0.16 0.13 0.20 0.23 0.20 0.23 0.22 0.21 0.23 0.25 0.27 0.29 0.31 0.34 0.37 0.37 0.38 0.40 0.41 0.41 0.42 0.38 0.35 0.36 0.36 0.33 0.27 0.25 0.24 0.24 0.25 0.26 0.26 0.26 0.25 0.25 0.23 0.23 0.24 0.24 0.23 0.23 0.23 0.25
0.20 0.19 0.21 0.24 0.27 0.28 0.29 0.26 0.26 0.28 0.30 0.30 0.29 0.33 0.35 0.37 0.38 0.39 0.41 0.40 0.41 0.37 0.34 0.33 0.35 0.33 0.31 0.26 0.25 0.25 0.25 0.26 0.27 0.26 0.25 0.25 0.26 0.27 0.26 0.25 0.24 0.24 0.25 0.26
0.18 0.20 0.22 0.22 0.24 0.27 0.27 0.30 0.29 0.29 0.31 0.32 0.31 0.31 0.34 0.35 0.36 0.38 0.39 0.40 0.39 0.36 0.34 0.35 0.36 0.34 0.33 0.27 0.26 0.25 0.26 0.27 0.27 0.27 0.26 0.26 0.28 0.28 0.26 0.27 0.27 0.25 0.28 0.30
0.15 0.22 0.21 0.20 0.24 0.26 0.25 0.26 0.28 0.29 0.28 0.33 0.36 0.34 0.35 0.34 0.37 0.40 0.39 0.40 0.38 0.37 0.36 0.36 0.37 0.34 0.32 0.29 0.26 0.25 0.25 0.27 0.28 0.29 0.28 0.28 0.27 0.26 0.28 0.28 0.29 0.31 0.34 0.36
0.26 0.31 0.30 0.27 0.27 0.28 0.27 0.27 0.28 0.27 0.28 0.28 0.31 0.35 0.37 0.38 0.39 0.41 0.40 0.40 0.38 0.36 0.37 0.39 0.38 0.36 0.32 0.30 0.27 0.26 0.26 0.28 0.31 0.31 0.30 0.28 0.27 0.24 0.22 0.27 0.32 0.35 0.36 0.38
0.34 0.32 0.26 0.26 0.24 0.27 0.28 0.27 0.28 0.28 0.28 0.29 0.30 0.33 0.34 0.37 0.40 0.42 0.41 0.41 0.42 0.41 0.41 0.41 0.40 0.38 0.34 0.31 0.28 0.28 0.30 0.32 0.33 0.32 0.32 0.31 0.29 0.28 0.28 0.29 0.31 0.35 0.38 0.36
0.30 0.28 0.23 0.22 0.22 0.21 0.23 0.24 0.23 0.22 0.22 0.23 0.29 0.31 0.32 0.33 0.35 0.37 0.41 0.44 0.45 0.44 0.43 0.44 0.42 0.40 0.37 0.34 0.31 0.30 0.31 0.32 0.34 0.34 0.34 0.34 0.32 0.32 0.36 0.37 0.37 0.35 0.34 0.33
0.27 0.24 0.21 0.21 0.20 0.21 0.21 0.19 0.18 0.17 0.19 0.21 0.26 0.30 0.31 0.34 0.36 0.38 0.41 0.42 0.40 0.37 0.41 0.44 0.43 0.43 0.39 0.36 0.33 0.33 0.34 0.35 0.35 0.35 0.37 0.36 0.37 0.38 0.38 0.38 0.36 0.34 0.32 0.32
0.25 0.23 0.22 0.20 0.20 0.21 0.22 0.24 0.25 0.23 0.21 0.22 0.26 0.30 0.31 0.33 0.36 0.37 0.39 0.43 0.44 0.44 0.46 0.45 0.43 0.42 0.38 0.34 0.32 0.32 0.34 0.34 0.35 0.39 0.39 0.37 0.38 0.38 0.39 0.37 0.35 0.34 0.33 0.33
0.34 0.25 0.26 0.24 0.23 0.23 0.24 0.25 0.26 0.27 0.25 0.24 0.26 0.29 0.30 0.32 0.31 0.35 0.37 0.40 0.41 0.41 0.43 0.44 0.44 0.41 0.38 0.35 0.33 0.32 0.30 0.30 0.33 0.36 0.37 0.37 0.39 0.40 0.37 0.35 0.35 0.33 0.32 0.32
0.28 0.29 0.30 0.29 0.30 0.28 0.27 0.27 0.27 0.28 0.29 0.28 0.27 0.28 0.30 0.33 0.35 0.36 0.39 0.40 0.39 0.38 0.41 0.45 0.45 0.41 0.36 0.33 0.31 0.30 0.30 0.32 0.36 0.37 0.37 0.36 0.36 0.36 0.34 0.35 0.34 0.33 0.31 0.32
0.32 0.33 0.33 0.33 0.34 0.33 0.31 0.32 0.33 0.32 0.33 0.33 0.33 0.33 0.32 0.33 0.36 0.37 0.39 0.39 0.42 0.43 0.47 0.46 0.44 0.40 0.35 0.31 0.29 0.28 0.29 0.33 0.35 0.36 0.37 0.37 0.36 0.35 0.34 0.33 0.34 0.33 0.32 0.32
0.35 0.35 0.34 0.34 0.34 0.34 0.34 0.35 0.35 0.34 0.35 0.36 0.33 0.33 0.34 0.36 0.38 0.39 0.38 0.37 0.42 0.47 0.47 0.46 0.43 0.38 0.33 0.30 0.28 0.28 0.29 0.30 0.32 0.35 0.37 0.36 0.36 0.34 0.33 0.34 0.33 0.32 0.32 0.32
0.39 0.37 0.37 0.36 0.35 0.33 0.35 0.37 0.38 0.37 0.36 0.37 0.37 0.36 0.35 0.35 0.37 0.38 0.42 0.42 0.47 0.49 0.48 0.46 0.42 0.36 0.31 0.28 0.27 0.27 0.28 0.33 0.37 0.37 0.36 0.35 0.32 0.32 0.33 0.32 0.31 0.32 0.32 0.31
0.44 0.43 0.40 0.38 0.37 0.35 0.34 0.35 0.36 0.37 0.36 0.35 0.35 0.35 0.36 0.38 0.40 0.38 0.37 0.45 0.48 0.48 0.45 0.42 0.37 0.33 0.29 0.27 0.27 0.27 0.33 0.38 0.38 0.37 0.34 0.32 0.34 0.33 0.31 0.30 0.31 0.31 0.30 0.29
0.46 0.45 0.44 0.42 0.39 0.34 0.30 0.31 0.34 0.33 0.34 0.34 0.36 0.39 0.39 0.38 0.40 0.44 0.46 0.48 0.48 0.47 0.43 0.38 0.32 0.28 0.27 0.26 0.26 0.34 0.37 0.36 0.36 0.35 0.35 0.34 0.32 0.31 0.31 0.30 0.29 0.29 0.29 0.29
0.47 0.48 0.44 0.38 0.33 0.31 0.32 0.33 0.31 0.32 0.33 0.35 0.37 0.39 0.41 0.43 0.42 0.45 0.47 0.47 0.46 0.41 0.35 0.30 0.28 0.26 0.26 0.31 0.38 0.38 0.38 0.36 0.34 0.33 0.31 0.30 0.29 0.29 0.28 0.28 0.28 0.28 0.27 0.27
0.49 0.46 0.41 0.36 0.33 0.33 0.32 0.31 0.29 0.31 0.33 0.33 0.36 0.38 0.40 0.42 0.44 0.45 0.44 0.41 0.38 0.33 0.29 0.28 0.27 0.33 0.42 0.41 0.39 0.37 0.34 0.31 0.29 0.27 0.27 0.27 0.26 0.25 0.26 0.27 0.26 0.25 0.25 0.25
0.49 0.45 0.37 0.32 0.31 0.32 0.32 0.31 0.29 0.29 0.33 0.34 0.33 0.36 0.38 0.40 0.42 0.41 0.38 0.36 0.34 0.33 0.31 0.36 0.44 0.43 0.40 0.38 0.35 0.32 0.29 0.28 0.27 0.27 0.26 0.24 0.24 0.23 0.23 0.23 0.23 0.23 0.23 0.23
Wind_Speed
3 2 3 3 3 3 3 2 4 5 7 4 3 4 5 6 9 9 10 12 13 13 13 13 13 13 12 11 10 11 10 10 10 9 7 6 5 4 2 2 1 2 3 5
4 3 2 2 1 2 2 3 2 6 2 2 3 3 2 2 4 5 7 9 9 9 10 10 10 10 10 10 10 10 9 8 7 5 4 3 2 1 0 1 2 4 5 7
3 5 7 5 4 3 2 1 2 2 4 3 3 4 3 2 1 1 2 3 4 4 5 5 6 6 6 6 6 6 6 4 3 3 3 2 1 1 2 3 5 7 9 11
7 7 4 4 3 3 5 6 7 5 5 7 7 7 7 6 5 4 3 3 3 2 2 1 1 2 2 3 3 3 4 3 2 1 0 1 1 3 5 6 8 10 12 14
4 6 11 9 8 7 7 10 11 11 9 9 9 9 12 12 10 9 7 6 6 5 4 2 2 1 1 1 2 2 1 1 1 1 2 3 5 6 8 10 12 14 16 18
4 4 3 2 2 3 4 9 7 10 11 8 7 9 12 13 13 11 10 8 7 6 4 3 3 3 2 2 2 2 2 3 3 4 5 7 8 10 11 13 15 17 19 21
2 4 7 4 2 1 2 3 2 2 6 6 7 7 7 7 10 11 10 9 8 7 6 5 4 4 4 4 4 5 5 6 7 8 9 10 12 13 15 17 19 21 23 25
3 3 5 0 1 2 4 4 5 6 6 9 11 8 7 7 7 9 9 9 9 9 8 7 7 7 7 8 8 9 9 10 11 12 13 14 15 17 18 20 22 24 26 28
3 5 7 6 7 8 7 8 10 11 10 10 11 12 11 10 10 11 11 11 11 11 11 11 11 11 11 11 12 12 13 14 15 16 17 18 19 20 22 24 25 27 29 30
9 5 7 12 14 14 13 14 13 14 14 12 13 14 14 14 14 14 14 14 14 14 15 15 15 15 16 15 15 16 17 18 19 19 20 21 22 24 25 26 28 30 32 33
14 17 16 10 10 14 15 15 17 16 16 16 16 17 17 18 18 18 18 18 18 19 19 19 19 19 19 19 19 20 20 21 22 22 23 24 25 26 28 29 31 32 34 36
11 13 13 17 15 15 14 14 16 17 17 19 18 19 19 20 21 21 21 21 21 22 22 22 22 22 22 22 22 22 23 23 24 25 25 26 27 29 30 32 33 35 37 38
11 11 12 14 18 19 21 22 22 20 21 21 22 24 23 22 22 23 23 23 24 24 24 24 24 24 24 24 24 25 25 26 26 27 28 29 30 31 32 33 35 36 38 39
14 13 14 13 14 15 16 17 19 21 24 26 27 26 25 25 24 24 25 26 26 25 25 26 26 26 26 26 26 27 28 29 29 30 30 31 32 33 33 34 36 37 38 38
14 14 15 17 18 18 18 20 21 21 22 23 24 27 28 28 28 28 28 28 27 27 28 28 28 30 29 29 30 30 31 31 32 32 32 33 33 34 35 36 37 37 38 38
15 17 18 16 18 19 19 19 20 22 22 23 22 21 23 26 29 30 30 29 29 30 31 30 31 31 31 31 32 32 32 33 33 33 34 34 35 35 35 36 37 37 38 38
18 19 18 19 18 19 21 22 23 24 24 22 21 21 22 23 24 24 27 29 31 32 32 32 33 33 33 33 33 33 34 34 34 34 35 35 35 35 37 37 38 38 39 38
23 20 20 21 22 23 24 25 26 26 26 25 24 23 23 23 25 26 26 27 28 29 29 30 31 32 33 34 34 34 34 35 35 36 36 36 37 39 39 39 39 39 38 38
20 21 21 22 23 25 26 27 27 27 26 26 25 25 26 26 27 27 28 29 31 31 32 33 33 33 33 33 33 33 34 34 35 36 37 38 39 40 40 39 39 38 37 36
20 21 22 23 25 26 27 28 28 28 28 27 27 27 27 28 29 29 31 32 33 34 34 35 35 35 35 35 34 34 34 34 35 37 38 39 40 40 39 38 37 36 36 35
21 22 24 25 27 28 28 28 29 29 30 29 30 30 30 31 31 32 32 34 35 35 36 36 36 36 35 35 34 34 35 35 37 37 38 38 39 38 36 35 35 34 34 33
23 24 26 28 29 30 30 31 31 31 32 32 32 32 32 33 33 34 35 35 35 35 36 36 36 35 34 33 33 34 34 36 38 38 38 38 36 35 34 34 33 33 33 32
25 27 29 30 31 32 32 32 32 33 34 34 33 33 34 34 34 34 34 35 34 35 34 34 33 32 32 31 32 33 35 36 37 36 35 34 34 33 33 32 32 31 32 31
28 30 31 32 32 32 33 33 33 33 34 34 34 34 33 33 33 33 33 32 32 32 31 31 29 28 28 28 30 32 35 35 34 33 32 32 32 32 31 31 31 31 31 31
30 32 32 33 33 33 33 33 32 33 33 33 34 33 32 32 32 31 31 30 29 28 26 25 25 25 26 28 31 32 31 31 30 30 31 31 31 31 31 31 31 31 31 30
32 33 33 33 34 33 33 32 32 33 33 33 32 31 31 31 30 29 28 26 24 23 22 22 23 24 27 29 28 29 28 28 29 30 30 30 30 30 30 31 31 31 30 29
33 34 33 34 33 32 32 32 32 33 32 32 31 30 30 29 28 26 25 22 21 20 20 22 24 25 26 27 27 27 28 28 29 29 29 30 30 31 32 32 32 31 30 28
Wind_Direction
40 27 49 35 33 61 125 98 85 114 127 126 122 92 83 70 66 65 63 64 68 73 78 79 83 90 94 102 110 125 123 123 123 126 125 126 129 131 141 145 213 264 280 288
14 67 9 343 24 94 120 99 71 123 163 154 129 112 95 75 69 60 65 67 69 70 72 78 81 86 92 99 105 114 118 125 131 128 140 146 146 157 184 282 290 301 304 302
328 349 324 312 236 199 218 226 153 169 228 194 214 228 237 241 288 29 50 50 61 63 67 70 75 81 92 100 110 118 125 123 127 130 136 148 178 191 307 305 303 307 307 306
297 321 313 278 295 257 254 260 244 260 250 234 237 242 250 250 250 261 278 289 301 312 322 341 48 87 108 111 115 125 129 124 129 142 189 267 291 302 305 307 308 308 309 309
313 293 290 280 258 248 254 278 253 250 261 254 255 263 266 250 248 254 261 271 277 281 278 265 251 223 188 161 149 152 168 182 273 295 295 300 303 304 306 307 307 309 308 308
19 15 356 4 333 251 272 292 286 249 248 249 249 267 268 246 245 251 255 261 254 251 249 246 245 229 221 226 227 240 272 280 284 292 296 298 300 302 303 304 306 308 309 308
316 327 323 295 340 30 27 306 341 319 241 233 252 267 289 250 241 244 250 246 244 243 247 245 236 237 246 256 261 270 277 278 285 290 294 297 298 300 302 304 305 306 308 309
1 337 321 256 27 251 292 299 298 309 297 256 257 270 271 263 245 236 234 237 237 236 239 242 248 254 261 268 272 277 280 282 285 290 293 295 297 299 301 303 305 306 307 309
265 294 317 288 296 286 293 288 289 287 284 275 266 263 263 263 252 246 242 241 241 243 248 252 257 263 268 272 274 278 281 283 287 289 290 293 296 299 301 303 305 307 308 309
313 316 301 291 284 283 285 285 292 284 283 277 269 261 259 261 259 255 252 248 249 251 255 259 262 266 269 273 274 278 281 284 287 289 291 293 295 298 301 303 305 306 307 309
285 290 294 301 292 294 283 281 287 287 276 271 271 269 263 261 260 257 257 255 255 256 259 262 264 267 271 272 275 278 281 284 287 290 292 294 295 298 300 302 304 305 306 307
281 287 283 288 291 297 295 288 285 287 285 272 270 270 270 267 262 259 258 256 257 259 262 264 266 269 271 273 275 278 281 285 288 290 291 293 295 298 299 302 305 305 306 306
295 302 302 303 300 292 284 287 286 284 281 279 275 269 269 269 265 262 260 258 259 260 262 264 267 270 272 273 275 278 281 285 287 289 291 293 296 298 300 302 304 305 306 307
284 298 300 302 304 313 307 303 301 295 285 278 275 274 268 266 266 262 259 259 261 262 263 265 268 271 272 273 275 277 281 283 287 289 291 293 295 297 299 301 303 305 307 308
280 280 290 299 303 302 303 304 301 300 298 295 285 274 268 265 264 262 262 262 262 263 264 266 270 272 273 273 275 277 280 284 286 289 291 292 295 297 299 301 303 304 307 308
281 287 288 292 300 306 308 309 304 304 301 298 292 283 279 271 266 264 263 262 262 264 265 267 270 271 273 274 276 278 281 283 286 288 290 292 295 297 299 301 302 304 306 307
285 293 288 289 294 300 302 303 304 303 302 298 293 288 284 277 273 268 266 264 264 267 267 268 271 272 273 274 276 279 281 284 286 288 290 292 294 296 299 300 301 302 305 306
274 279 283 285 292 297 301 302 303 302 300 296 292 288 283 279 275 271 267 266 269 270 271 271 273 274 274 275 277 279 281 284 286 288 290 291 293 296 298 299 299 300 303 304
266 276 283 287 290 293 297 299 300 301 301 298 292 288 283 280 278 275 272 269 268 269 270 271 272 274 275 276 278 280 282 284 287 289 290 291 293 296 298 298 298 299 301 302
269 276 282 289 294 296 298 299 300 300 298 296 293 291 288 283 279 276 273 271 270 272 272 271 271 272 274 276 277 280 282 285 289 290 291 293 294 296 296 294 295 297 299 300
273 279 285 290 294 297 298 300 300 299 299 297 293 291 288 286 283 280 277 276 273 272 272 272 271 272 273 274 276 278 281 286 290 293 293 293 294 295 294 295 295 297 298 299
279 283 287 290 292 295 298 299 299 299 300 298 296 293 291 288 285 283 280 278 275 272 272 272 272 271 272 273 276 278 283 288 292 292 293 294 293 293 294 294 295 296 297 298
281 284 288 291 293 295 297 298 298 298 299 299 297 295 293 291 288 285 283 280 277 275 273 272 271 271 273 275 277 281 285 291 292 293 293 294 294 294 294 295 295 296 298 299
282 286 290 292 294 295 296 298 299 299 299 299 297 296 295 293 291 290 287 282 278 275 272 272 270 270 273 277 282 287 290 291 292 292 293 294 295 295 295 296 297 298 299 299
284 288 291 292 293 294 295 298 300 301 301 301 300 299 297 296 294 292 289 285 281 274 272 269 269 271 275 282 287 290 291 292 292 293 295 295 295 296 296 297 297 299 299 299
287 288 290 291 292 294 296 298 299 300 300 301 301 300 299 299 298 295 289 285 279 273 270 270 271 275 283 287 289 291 291 292 294 295 296 296 296 297 298 299 300 299 299 298
286 287 289 292 293 294 295 296 298 298 299 299 300 301 300 300 297 294 290 282 273 271 272 275 276 281 286 288 290 292 293 294 296 297 297 297 298 298 298 299 299 299 298 296